,,,PA_Meas_PMT16A,,PR_Meas_QMR101_102,,RH_Meas_QMH101,,SR_Meas_QMS101,,TA_Meas_QMH101,,GenWind,,GenWind,
date,time,status,PA,status,PR,status,RH,status,SR,status,TA,status,DirAvg,status,SpdAvg,
2009-09-25, 00:00:04,VALID,999.856,VALID,0,VALID,86.9243,VALID,0,VALID,23.5256,VALID,42,VALID,0.653516,
2009-09-25, 00:01:04,VALID,999.832,VALID,0,VALID,87.2676,VALID,0,VALID,23.5061,VALID,42,VALID,0.605469,
2009-09-25, 00:02:04,VALID,999.846,VALID,0,VALID,87.0387,VALID,0,VALID,23.5061,VALID,42,VALID,0.440625,
2009-09-25, 00:03:04,VALID,999.836,VALID,0,VALID,87.0158,VALID,0,VALID,23.4653,VALID,42,VALID,0.374219,
2009-09-25, 00:04:04,VALID,999.805,VALID,0,VALID,87.0158,VALID,0,VALID,23.4671,VALID,42,VALID,0.353125,
2009-09-25, 00:05:04,VALID,999.783,VALID,0,VALID,87.1608,VALID,0,VALID,23.4085,VALID,42,VALID,0.552734,
2009-09-25, 00:06:04,VALID,999.791,VALID,0,VALID,87.5346,VALID,0,VALID,23.3695,VALID,42,VALID,0.485938,
2009-09-25, 00:07:04,VALID,999.784,VALID,0,VALID,87.7635,VALID,0,VALID,23.311,VALID,42,VALID,0.392188,
2009-09-25, 00:08:04,VALID,999.785,VALID,0,VALID,87.7864,VALID,0,VALID,23.2719,VALID,42,VALID,0.0308594,
2009-09-25, 00:09:04,VALID,999.794,VALID,0,VALID,87.9771,VALID,0,VALID,23.2524,VALID,42,VALID,0.124609,
2009-09-25, 00:10:04,VALID,999.77,VALID,0,VALID,88.2594,VALID,0,VALID,23.1939,VALID,42,VALID,0.0769531,
2009-09-25, 00:11:04,VALID,999.786,VALID,0,VALID,88.3129,VALID,0,VALID,23.1939,VALID,42,VALID,0,
2009-09-25, 00:12:04,VALID,999.766,VALID,0,VALID,88.4502,VALID,0,VALID,23.1549,VALID,42,VALID,0,
2009-09-25, 00:13:04,VALID,999.733,VALID,0,VALID,88.5189,VALID,0,VALID,23.1354,VALID,42,VALID,0,
2009-09-25, 00:14:04,VALID,999.701,VALID,0,VALID,88.5646,VALID,0,VALID,23.0964,VALID,42,VALID,0,
2009-09-25, 00:15:04,VALID,999.722,VALID,0,VALID,88.8317,VALID,0,VALID,23.0769,VALID,42,VALID,0,
2009-09-25, 00:16:04,VALID,999.696,VALID,0,VALID,89.0377,VALID,0,VALID,23.0573,VALID,42,VALID,0,
2009-09-25, 00:17:04,VALID,999.682,VALID,0,VALID,89.1597,VALID,0,VALID,23.0573,VALID,42,VALID,0,
2009-09-25, 00:18:04,VALID,999.69,VALID,0,VALID,89.2589,VALID,0,VALID,23.0573,VALID,42,VALID,0,
2009-09-25, 00:19:04,VALID,999.667,VALID,0,VALID,89.381,VALID,0,VALID,23.0573,VALID,42,VALID,0,
2009-09-25, 00:20:04,VALID,999.689,VALID,0,VALID,89.4191,VALID,0,VALID,23.0769,VALID,42,VALID,0,
2009-09-25, 00:21:04,VALID,999.654,VALID,0,VALID,89.4191,VALID,0,VALID,23.0964,VALID,42,VALID,0,
2009-09-25, 00:22:04,VALID,999.683,VALID,0,VALID,89.2437,VALID,0,VALID,23.0964,VALID,42,VALID,0.350391,
2009-09-25, 00:23:04,VALID,999.65,VALID,0,VALID,89.1216,VALID,0,VALID,23.0964,VALID,48,VALID,0.05,
2009-09-25, 00:24:04,VALID,999.628,VALID,0,VALID,89.114,VALID,0,VALID,23.0751,VALID,79,VALID,0.347266,
2009-09-25, 00:25:04,VALID,999.617,VALID,0,VALID,89.1216,VALID,0,VALID,23.0946,VALID,134,VALID,0.457812,
2009-09-25, 00:26:04,VALID,999.618,VALID,0,VALID,88.9614,VALID,0,VALID,23.1159,VALID,134,VALID,0.206641,
2009-09-25, 00:27:04,VALID,999.598,VALID,0,VALID,88.8927,VALID,0,VALID,23.1159,VALID,134,VALID,0.0449219,
2009-09-25, 00:28:04,VALID,999.576,VALID,0,VALID,89.1903,VALID,0,VALID,23.1354,VALID,134,VALID,0.264844,
2009-09-25, 00:29:04,VALID,999.591,VALID,0,VALID,89.1903,VALID,0,VALID,23.1566,VALID,134,VALID,0.250781,
2009-09-25, 00:30:04,VALID,999.558,VALID,0,VALID,89.0758,VALID,0,VALID,23.1549,VALID,134,VALID,0.260547,
2009-09-25, 00:31:04,VALID,999.557,VALID,0,VALID,89.1368,VALID,0,VALID,23.1744,VALID,134,VALID,0.230469,
2009-09-25, 00:32:04,VALID,999.57,VALID,0,VALID,89.0529,VALID,0,VALID,23.2134,VALID,134,VALID,0.0449219,
2009-09-25, 00:33:04,VALID,999.544,VALID,0,VALID,88.9461,VALID,0,VALID,23.2329,VALID,134,VALID,0.000390625,
2009-09-25, 00:34:04,VALID,999.546,VALID,0,VALID,88.9309,VALID,0,VALID,23.2329,VALID,134,VALID,0.3,
2009-09-25, 00:35:04,VALID,999.562,VALID,0,VALID,88.9385,VALID,0,VALID,23.2329,VALID,134,VALID,0.259375,
2009-09-25, 00:36:04,VALID,999.53,VALID,0,VALID,88.8927,VALID,0,VALID,23.2329,VALID,134,VALID,0.169531,
2009-09-25, 00:37:04,VALID,999.549,VALID,0,VALID,88.7783,VALID,0,VALID,23.2329,VALID,134,VALID,0.260156,
2009-09-25, 00:38:04,VALID,999.57,VALID,0,VALID,88.7554,VALID,0,VALID,23.2542,VALID,134,VALID,0.264453,
2009-09-25, 00:39:04,VALID,999.561,VALID,0,VALID,88.5875,VALID,0,VALID,23.2329,VALID,134,VALID,0.230469,
2009-09-25, 00:40:04,VALID,999.551,VALID,0,VALID,88.6638,VALID,0,VALID,23.1939,VALID,134,VALID,0,
2009-09-25, 00:41:04,VALID,999.52,VALID,0,VALID,88.8011,VALID,0,VALID,23.1939,VALID,134,VALID,0,
2009-09-25, 00:42:04,VALID,999.536,VALID,0,VALID,88.8011,VALID,0,VALID,23.1939,VALID,134,VALID,0,
2009-09-25, 00:43:04,VALID,999.514,VALID,0,VALID,88.7249,VALID,0,VALID,23.1939,VALID,134,VALID,0,
2009-09-25, 00:44:04,VALID,999.493,VALID,0,VALID,88.5646,VALID,0,VALID,23.1549,VALID,134,VALID,0,
2009-09-25, 00:45:04,VALID,999.473,VALID,0,VALID,88.8164,VALID,0,VALID,23.1354,VALID,134,VALID,0.179688,
2009-09-25, 00:46:04,VALID,999.449,VALID,0,VALID,88.7172,VALID,0,VALID,23.1354,VALID,134,VALID,0.108203,
2009-09-25, 00:47:04,VALID,999.481,VALID,0,VALID,88.8546,VALID,0,VALID,23.0964,VALID,134,VALID,0.157422,
2009-09-25, 00:48:04,VALID,999.483,VALID,0,VALID,88.9461,VALID,0,VALID,23.1159,VALID,134,VALID,0.167969,
2009-09-25, 00:49:04,VALID,999.517,VALID,0,VALID,88.908,VALID,0,VALID,23.1159,VALID,134,VALID,0.130859,
2009-09-25, 00:50:04,VALID,999.512,VALID,0,VALID,88.7401,VALID,0,VALID,23.1159,VALID,134,VALID,0.255469,
2009-09-25, 00:51:04,VALID,999.495,VALID,0,VALID,88.8469,VALID,0,VALID,23.1159,VALID,134,VALID,0.351563,
2009-09-25, 00:52:04,VALID,999.498,VALID,0,VALID,88.9003,VALID,0,VALID,23.1159,VALID,134,VALID,0.377734,
2009-09-25, 00:53:04,VALID,999.46,VALID,0,VALID,88.7096,VALID,0,VALID,23.0964,VALID,134,VALID,0.211328,
2009-09-25, 00:54:04,VALID,999.425,VALID,0,VALID,88.6104,VALID,0,VALID,23.0573,VALID,134,VALID,0.333984,
2009-09-25, 00:55:04,VALID,999.383,VALID,0,VALID,88.9003,VALID,0,VALID,22.9971,VALID,134,VALID,0.355859,
2009-09-25, 00:56:04,VALID,999.391,VALID,0,VALID,89.03,VALID,0,VALID,22.9793,VALID,134,VALID,0.283984,
2009-09-25, 00:57:04,VALID,999.407,VALID,0,VALID,89.2742,VALID,0,VALID,22.9208,VALID,134,VALID,0.147266,
2009-09-25, 00:58:04,VALID,999.416,VALID,0,VALID,89.5183,VALID,0,VALID,22.8818,VALID,134,VALID,0.179297,
2009-09-25, 00:59:04,VALID,999.4,VALID,0,VALID,89.7091,VALID,0,VALID,22.8818,VALID,134,VALID,0.120312,
2009-09-25, 01:00:04,VALID,999.385,VALID,0,VALID,89.7701,VALID,0,VALID,22.8623,VALID,134,VALID,0,
2009-09-25, 01:01:04,VALID,999.355,VALID,0,VALID,89.9227,VALID,0,VALID,22.8427,VALID,134,VALID,0,
2009-09-25, 01:02:04,VALID,999.31,VALID,0,VALID,90.1821,VALID,0,VALID,22.8427,VALID,134,VALID,0.1,
2009-09-25, 01:03:04,VALID,999.314,VALID,0,VALID,90.2813,VALID,0,VALID,22.8427,VALID,134,VALID,0.1375,
2009-09-25, 01:04:04,VALID,999.262,VALID,0,VALID,90.2355,VALID,0,VALID,22.8623,VALID,134,VALID,0.119922,
2009-09-25, 01:05:04,VALID,999.271,VALID,0,VALID,90.1592,VALID,0,VALID,22.8623,VALID,134,VALID,0.0257812,
2009-09-25, 01:06:04,VALID,999.246,VALID,0,VALID,90.0906,VALID,0,VALID,22.8623,VALID,134,VALID,0,
2009-09-25, 01:07:04,VALID,999.247,VALID,0,VALID,90.0982,VALID,0,VALID,22.8427,VALID,134,VALID,0,
2009-09-25, 01:08:04,VALID,999.23,VALID,0,VALID,90.2126,VALID,0,VALID,22.8623,VALID,134,VALID,0,
2009-09-25, 01:09:04,VALID,999.241,VALID,0,VALID,90.2279,VALID,0,VALID,22.8818,VALID,134,VALID,0,
2009-09-25, 01:10:04,VALID,999.235,VALID,0,VALID,90.2126,VALID,0,VALID,22.8818,VALID,134,VALID,0,
2009-09-25, 01:11:04,VALID,999.18,VALID,0,VALID,90.1821,VALID,0,VALID,22.8818,VALID,134,VALID,0,
2009-09-25, 01:12:04,VALID,999.189,VALID,0,VALID,90.1516,VALID,0,VALID,22.88,VALID,134,VALID,0,
2009-09-25, 01:13:04,VALID,999.162,VALID,0,VALID,90.0753,VALID,0,VALID,22.8818,VALID,134,VALID,0,
2009-09-25, 01:14:04,VALID,999.134,VALID,0,VALID,90.1134,VALID,0,VALID,22.9013,VALID,88,VALID,0.674609,
2009-09-25, 01:15:04,VALID,999.11,VALID,0,VALID,90.1287,VALID,0,VALID,22.9013,VALID,64,VALID,0.7625,
2009-09-25, 01:16:04,VALID,999.141,VALID,0,VALID,89.9837,VALID,0,VALID,22.9598,VALID,59,VALID,0.759766,
2009-09-25, 01:17:04,VALID,999.112,VALID,0,VALID,89.7777,VALID,0,VALID,22.9793,VALID,59,VALID,0.721094,
2009-09-25, 01:18:04,VALID,999.116,VALID,0,VALID,89.4573,VALID,0,VALID,23.0396,VALID,59,VALID,0.795313,
2009-09-25, 01:19:04,VALID,999.099,VALID,0,VALID,89.0682,VALID,0,VALID,23.0183,VALID,59,VALID,0.85625,
2009-09-25, 01:20:04,VALID,999.083,VALID,0,VALID,88.557,VALID,0,VALID,22.9988,VALID,59,VALID,0.846484,
2009-09-25, 01:21:04,VALID,999.05,VALID,0,VALID,88.4883,VALID,0,VALID,22.9598,VALID,59,VALID,0.951563,
2009-09-25, 01:22:04,VALID,999.041,VALID,0,VALID,88.3586,VALID,0,VALID,22.9208,VALID,59,VALID,0.860547,
2009-09-25, 01:23:04,VALID,999.041,VALID,0,VALID,88.6409,VALID,0,VALID,22.8835,VALID,59,VALID,0.858594,
2009-09-25, 01:24:04,VALID,999.019,VALID,0,VALID,88.5112,VALID,0,VALID,22.8427,VALID,59,VALID,0.7,
2009-09-25, 01:25:04,VALID,999.015,VALID,0,VALID,88.3968,VALID,0,VALID,22.7647,VALID,66,VALID,0.921484,
2009-09-25, 01:26:04,VALID,998.987,VALID,0,VALID,88.6867,VALID,0,VALID,22.7452,VALID,66,VALID,0.888672,
2009-09-25, 01:27:04,VALID,999.006,VALID,0,VALID,88.9156,VALID,0,VALID,22.6867,VALID,73,VALID,0.777344,
2009-09-25, 01:28:04,VALID,999.006,VALID,0,VALID,89.1216,VALID,0,VALID,22.6672,VALID,73,VALID,0.781641,
2009-09-25, 01:29:04,VALID,999.031,VALID,0,VALID,89.03,VALID,0,VALID,22.6477,VALID,73,VALID,0.541406,
2009-09-25, 01:30:04,VALID,999.007,VALID,0,VALID,89.0987,VALID,0,VALID,22.6087,VALID,83,VALID,0.583203,
2009-09-25, 01:31:04,VALID,998.967,VALID,0,VALID,89.3657,VALID,0,VALID,22.6104,VALID,83,VALID,0.563281,
2009-09-25, 01:32:04,VALID,998.97,VALID,0,VALID,89.4344,VALID,0,VALID,22.5696,VALID,83,VALID,0.598437,
2009-09-25, 01:33:04,VALID,998.942,VALID,0,VALID,89.6557,VALID,0,VALID,22.5892,VALID,83,VALID,0.445703,
2009-09-25, 01:34:04,VALID,998.944,VALID,0,VALID,89.6557,VALID,0,VALID,22.5892,VALID,83,VALID,0.435547,
2009-09-25, 01:35:04,VALID,998.928,VALID,0,VALID,89.442,VALID,0,VALID,22.5892,VALID,83,VALID,0.303906,
2009-09-25, 01:36:04,VALID,998.939,VALID,0,VALID,89.0987,VALID,0,VALID,22.5501,VALID,83,VALID,0,
2009-09-25, 01:37:04,VALID,998.924,VALID,0,VALID,89.3047,VALID,0,VALID,22.5111,VALID,83,VALID,0.00585938,
2009-09-25, 01:38:04,VALID,998.913,VALID,0,VALID,89.5336,VALID,0,VALID,22.5111,VALID,83,VALID,0,
2009-09-25, 01:39:04,VALID,998.905,VALID,0,VALID,89.6175,VALID,0,VALID,22.4916,VALID,83,VALID,0,
2009-09-25, 01:40:04,VALID,998.857,VALID,0,VALID,89.6862,VALID,0,VALID,22.4916,VALID,83,VALID,0,
2009-09-25, 01:41:04,VALID,998.857,VALID,0,VALID,89.9151,VALID,0,VALID,22.4721,VALID,83,VALID,0.162891,
2009-09-25, 01:42:04,VALID,998.829,VALID,0,VALID,90.2126,VALID,0,VALID,22.4916,VALID,83,VALID,0.202734,
2009-09-25, 01:43:04,VALID,998.878,VALID,0,VALID,90.3576,VALID,0,VALID,22.5306,VALID,83,VALID,0,
2009-09-25, 01:44:04,VALID,998.86,VALID,0,VALID,90.2203,VALID,0,VALID,22.5306,VALID,83,VALID,0,
2009-09-25, 01:45:04,VALID,998.883,VALID,0,VALID,90.0677,VALID,0,VALID,22.5111,VALID,83,VALID,0,
2009-09-25, 01:46:04,VALID,998.861,VALID,0,VALID,90.1211,VALID,0,VALID,22.5128,VALID,83,VALID,0,
2009-09-25, 01:47:04,VALID,998.824,VALID,0,VALID,90.2355,VALID,0,VALID,22.4933,VALID,83,VALID,0,
2009-09-25, 01:48:04,VALID,998.798,VALID,0,VALID,90.5407,VALID,0,VALID,22.4721,VALID,83,VALID,0.2875,
2009-09-25, 01:49:04,VALID,998.781,VALID,0,VALID,90.6094,VALID,0,VALID,22.5111,VALID,83,VALID,0.321875,
2009-09-25, 01:50:04,VALID,998.814,VALID,0,VALID,90.6399,VALID,0,VALID,22.5111,VALID,83,VALID,0.268359,
2009-09-25, 01:51:04,VALID,998.845,VALID,0,VALID,90.6628,VALID,0,VALID,22.5323,VALID,83,VALID,0.0914062,
2009-09-25, 01:52:04,VALID,998.862,VALID,0,VALID,90.5331,VALID,0,VALID,22.4916,VALID,83,VALID,0,
2009-09-25, 01:53:04,VALID,998.847,VALID,0,VALID,90.4644,VALID,0,VALID,22.4738,VALID,83,VALID,0.288281,
2009-09-25, 01:54:04,VALID,998.817,VALID,0,VALID,90.6933,VALID,0,VALID,22.4721,VALID,83,VALID,0.233984,
2009-09-25, 01:55:04,VALID,998.771,VALID,0,VALID,90.3728,VALID,0,VALID,22.4721,VALID,83,VALID,0.500781,
2009-09-25, 01:56:04,VALID,998.782,VALID,0,VALID,90.968,VALID,0,VALID,22.4721,VALID,82,VALID,0.604297,
2009-09-25, 01:57:04,VALID,998.819,VALID,0,VALID,90.9451,VALID,0,VALID,22.5111,VALID,83,VALID,0.699219,
2009-09-25, 01:58:04,VALID,998.862,VALID,0,VALID,91.2274,VALID,0,VALID,22.5111,VALID,83,VALID,0.542578,
2009-09-25, 01:59:04,VALID,998.895,VALID,0,VALID,91.4105,VALID,0,VALID,22.5501,VALID,83,VALID,0.278125,
2009-09-25, 02:00:04,VALID,998.91,VALID,0,VALID,91.1206,VALID,0,VALID,22.5306,VALID,83,VALID,0.329297,
2009-09-25, 02:01:04,VALID,998.908,VALID,0,VALID,91.1434,VALID,0,VALID,22.5111,VALID,83,VALID,0.431641,
2009-09-25, 02:02:04,VALID,998.893,VALID,0,VALID,91.6394,VALID,0,VALID,22.5111,VALID,83,VALID,0.637891,
2009-09-25, 02:03:04,VALID,998.852,VALID,0,VALID,92.1506,VALID,0,VALID,22.5696,VALID,83,VALID,0.673828,
2009-09-25, 02:04:04,VALID,998.847,VALID,0,VALID,92.0132,VALID,0,VALID,22.6087,VALID,67,VALID,0.642187,
2009-09-25, 02:05:04,VALID,998.864,VALID,0,VALID,92.0895,VALID,0,VALID,22.6477,VALID,58,VALID,0.754297,
2009-09-25, 02:06:04,VALID,998.83,VALID,0,VALID,91.8988,VALID,0,VALID,22.7062,VALID,58,VALID,0.803125,
2009-09-25, 02:07:04,VALID,998.829,VALID,0,VALID,91.2884,VALID,0,VALID,22.6672,VALID,58,VALID,0.841016,
2009-09-25, 02:08:04,VALID,998.837,VALID,0,VALID,90.7467,VALID,0,VALID,22.6087,VALID,47,VALID,0.885547,
2009-09-25, 02:09:04,VALID,998.851,VALID,0,VALID,90.35,VALID,0,VALID,22.5501,VALID,33,VALID,0.955859,
2009-09-25, 02:10:04,VALID,998.877,VALID,0,VALID,90.3652,VALID,0,VALID,22.4721,VALID,28,VALID,0.967188,
2009-09-25, 02:11:04,VALID,998.818,VALID,0,VALID,89.8083,VALID,0,VALID,22.3941,VALID,22,VALID,0.717188,
2009-09-25, 02:12:04,VALID,998.75,VALID,0,VALID,90.1287,VALID,0,VALID,22.3161,VALID,22,VALID,0.607813,
2009-09-25, 02:13:04,VALID,998.753,VALID,0,VALID,90.3118,VALID,0,VALID,22.2771,VALID,22,VALID,0.580859,
2009-09-25, 02:14:04,VALID,998.741,VALID,0,VALID,90.8764,VALID,0,VALID,22.2771,VALID,22,VALID,0.739844,
2009-09-25, 02:15:04,VALID,998.727,VALID,0,VALID,91.0443,VALID,0,VALID,22.3178,VALID,26,VALID,0.655469,
2009-09-25, 02:16:04,VALID,998.74,VALID,0,VALID,90.7543,VALID,0,VALID,22.3161,VALID,38,VALID,0.691016,
2009-09-25, 02:17:04,VALID,998.717,VALID,0,VALID,90.6475,VALID,0,VALID,22.2771,VALID,41,VALID,0.498047,
2009-09-25, 02:18:04,VALID,998.699,VALID,0,VALID,90.6628,VALID,0,VALID,22.2576,VALID,41,VALID,0.450391,
2009-09-25, 02:19:04,VALID,998.662,VALID,0,VALID,90.7849,VALID,0,VALID,22.2381,VALID,41,VALID,0.437891,
2009-09-25, 02:20:04,VALID,998.661,VALID,0,VALID,90.7772,VALID,0,VALID,22.2381,VALID,41,VALID,0.542969,
2009-09-25, 02:21:04,VALID,998.668,VALID,0,VALID,90.7467,VALID,0,VALID,22.2186,VALID,67,VALID,0.701563,
2009-09-25, 02:22:04,VALID,998.65,VALID,0,VALID,90.7849,VALID,0,VALID,22.199,VALID,67,VALID,0.680469,
2009-09-25, 02:23:04,VALID,998.7,VALID,0,VALID,90.762,VALID,0,VALID,22.2202,VALID,67,VALID,0.436719,
2009-09-25, 02:24:04,VALID,998.716,VALID,0,VALID,90.8383,VALID,0,VALID,22.1795,VALID,67,VALID,0.308594,
2009-09-25, 02:25:04,VALID,998.712,VALID,0,VALID,90.8688,VALID,0,VALID,22.16,VALID,67,VALID,0.221094,
2009-09-25, 02:26:04,VALID,998.707,VALID,0,VALID,90.9832,VALID,0,VALID,22.16,VALID,67,VALID,0.141797,
2009-09-25, 02:27:04,VALID,998.683,VALID,0,VALID,90.968,VALID,0,VALID,22.1405,VALID,67,VALID,0.156641,
2009-09-25, 02:28:04,VALID,998.682,VALID,0,VALID,91.0748,VALID,0,VALID,22.121,VALID,67,VALID,0.378906,
2009-09-25, 02:29:04,VALID,998.663,VALID,0,VALID,91.2274,VALID,0,VALID,22.1015,VALID,67,VALID,0.398047,
2009-09-25, 02:30:04,VALID,998.69,VALID,0,VALID,91.2121,VALID,0,VALID,22.1015,VALID,67,VALID,0.563281,
2009-09-25, 02:31:04,VALID,998.681,VALID,0,VALID,91.3266,VALID,0,VALID,22.121,VALID,67,VALID,0.544531,
2009-09-25, 02:32:04,VALID,998.697,VALID,0,VALID,91.4486,VALID,0,VALID,22.121,VALID,67,VALID,0.408594,
2009-09-25, 02:33:04,VALID,998.69,VALID,0,VALID,91.6012,VALID,0,VALID,22.121,VALID,67,VALID,0.392969,
2009-09-25, 02:34:04,VALID,998.662,VALID,0,VALID,91.4944,VALID,0,VALID,22.1405,VALID,67,VALID,0.529688,
2009-09-25, 02:35:04,VALID,998.681,VALID,0,VALID,91.3342,VALID,0,VALID,22.121,VALID,67,VALID,0.553125,
2009-09-25, 02:36:04,VALID,998.734,VALID,0,VALID,91.3723,VALID,0,VALID,22.1015,VALID,82,VALID,0.676953,
2009-09-25, 02:37:04,VALID,998.757,VALID,0,VALID,91.4563,VALID,0,VALID,22.1015,VALID,84,VALID,0.673437,
2009-09-25, 02:38:04,VALID,998.754,VALID,0,VALID,91.5326,VALID,0,VALID,22.1032,VALID,85,VALID,0.655078,
2009-09-25, 02:39:04,VALID,998.794,VALID,0,VALID,91.9064,VALID,0,VALID,22.1227,VALID,85,VALID,0.708984,
2009-09-25, 02:40:04,VALID,998.804,VALID,0,VALID,91.9445,VALID,0,VALID,22.1617,VALID,85,VALID,0.55625,
2009-09-25, 02:41:04,VALID,998.825,VALID,0,VALID,91.792,VALID,0,VALID,22.1405,VALID,85,VALID,0.372266,
2009-09-25, 02:42:04,VALID,998.802,VALID,0,VALID,91.6928,VALID,0,VALID,22.121,VALID,85,VALID,0.360938,
2009-09-25, 02:43:04,VALID,998.796,VALID,0,VALID,92.0209,VALID,0,VALID,22.1015,VALID,85,VALID,0.401172,
2009-09-25, 02:44:04,VALID,998.801,VALID,0,VALID,92.1048,VALID,0,VALID,22.1422,VALID,85,VALID,0.335938,
2009-09-25, 02:45:04,VALID,998.763,VALID,0,VALID,92.0209,VALID,0,VALID,22.1422,VALID,85,VALID,0.224609,
2009-09-25, 02:46:04,VALID,998.763,VALID,0,VALID,92.2955,VALID,0,VALID,22.1422,VALID,85,VALID,0.431641,
2009-09-25, 02:47:04,VALID,998.721,VALID,0,VALID,92.4786,VALID,0,VALID,22.2007,VALID,85,VALID,0.378516,
2009-09-25, 02:48:04,VALID,998.679,VALID,0,VALID,92.1963,VALID,0,VALID,22.1812,VALID,85,VALID,0.245312,
2009-09-25, 02:49:04,VALID,998.671,VALID,0,VALID,91.8835,VALID,0,VALID,22.1015,VALID,85,VALID,0.383984,
2009-09-25, 02:50:04,VALID,998.683,VALID,0,VALID,92.0056,VALID,0,VALID,22.0837,VALID,84,VALID,0.240234,
2009-09-25, 02:51:04,VALID,998.696,VALID,0,VALID,91.9445,VALID,0,VALID,22.0447,VALID,84,VALID,0.103125,
2009-09-25, 02:52:04,VALID,998.664,VALID,0,VALID,92.0514,VALID,0,VALID,22.0235,VALID,84,VALID,0,
2009-09-25, 02:53:04,VALID,998.664,VALID,0,VALID,91.8759,VALID,0,VALID,21.9845,VALID,84,VALID,0,
2009-09-25, 02:54:04,VALID,998.68,VALID,0,VALID,91.853,VALID,0,VALID,21.9455,VALID,84,VALID,0,
2009-09-25, 02:55:04,VALID,998.665,VALID,0,VALID,91.9751,VALID,0,VALID,21.926,VALID,84,VALID,0.128516,
2009-09-25, 02:56:04,VALID,998.676,VALID,0,VALID,91.9674,VALID,0,VALID,21.9065,VALID,84,VALID,0,
2009-09-25, 02:57:04,VALID,998.724,VALID,0,VALID,91.998,VALID,0,VALID,21.9065,VALID,84,VALID,0,
2009-09-25, 02:58:04,VALID,998.72,VALID,0,VALID,92.1429,VALID,0,VALID,21.887,VALID,84,VALID,0,
2009-09-25, 02:59:04,VALID,998.702,VALID,0,VALID,92.4634,VALID,0,VALID,21.926,VALID,84,VALID,0.185937,
2009-09-25, 03:00:04,VALID,998.695,VALID,0,VALID,92.7151,VALID,0,VALID,22.0057,VALID,85,VALID,0.494922,
2009-09-25, 03:01:04,VALID,998.701,VALID,0,VALID,92.7151,VALID,0,VALID,22.043,VALID,85,VALID,0.544141,
2009-09-25, 03:02:04,VALID,998.716,VALID,0,VALID,92.6923,VALID,0,VALID,22.1015,VALID,85,VALID,0.591016,
2009-09-25, 03:03:04,VALID,998.763,VALID,0,VALID,92.7075,VALID,0,VALID,22.121,VALID,85,VALID,0.425,
2009-09-25, 03:04:04,VALID,998.8,VALID,0,VALID,92.5854,VALID,0,VALID,22.1405,VALID,85,VALID,0.305469,
2009-09-25, 03:05:04,VALID,998.789,VALID,0,VALID,92.2955,VALID,0,VALID,22.082,VALID,85,VALID,0.217969,
2009-09-25, 03:06:04,VALID,998.828,VALID,0,VALID,92.2421,VALID,0,VALID,22.0642,VALID,85,VALID,0.288281,
2009-09-25, 03:07:04,VALID,998.824,VALID,0,VALID,92.3642,VALID,0,VALID,22.0642,VALID,85,VALID,0.359375,
2009-09-25, 03:08:04,VALID,998.829,VALID,0,VALID,92.2268,VALID,0,VALID,22.004,VALID,56,VALID,0.551172,
2009-09-25, 03:09:04,VALID,998.85,VALID,0,VALID,92.2955,VALID,0,VALID,21.965,VALID,30,VALID,0.579297,
2009-09-25, 03:10:04,VALID,998.86,VALID,0,VALID,92.4176,VALID,0,VALID,21.9862,VALID,30,VALID,0.531641,
2009-09-25, 03:11:04,VALID,998.901,VALID,0,VALID,92.4939,VALID,0,VALID,21.9862,VALID,30,VALID,0.423828,
2009-09-25, 03:12:04,VALID,998.914,VALID,0,VALID,92.5473,VALID,0,VALID,22.0057,VALID,30,VALID,0.501562,
2009-09-25, 03:13:04,VALID,998.947,VALID,0,VALID,92.5397,VALID,0,VALID,22.0252,VALID,30,VALID,0.4,
2009-09-25, 03:14:04,VALID,998.951,VALID,0,VALID,92.5702,VALID,0,VALID,22.0447,VALID,30,VALID,0.418359,
2009-09-25, 03:15:04,VALID,998.931,VALID,0,VALID,92.471,VALID,0,VALID,22.0235,VALID,30,VALID,0.192188,
2009-09-25, 03:16:04,VALID,998.893,VALID,0,VALID,92.3871,VALID,0,VALID,22.0235,VALID,30,VALID,0,
2009-09-25, 03:17:04,VALID,998.874,VALID,0,VALID,92.3947,VALID,0,VALID,22.0235,VALID,30,VALID,0,
2009-09-25, 03:18:04,VALID,998.85,VALID,0,VALID,92.4252,VALID,0,VALID,22.0447,VALID,30,VALID,0,
2009-09-25, 03:19:04,VALID,998.872,VALID,0,VALID,92.3489,VALID,0,VALID,22.0447,VALID,30,VALID,0,
2009-09-25, 03:20:04,VALID,998.842,VALID,0,VALID,92.3871,VALID,0,VALID,22.0447,VALID,30,VALID,0.173438,
2009-09-25, 03:21:04,VALID,998.832,VALID,0,VALID,92.4481,VALID,0,VALID,22.043,VALID,30,VALID,0.0242187,
2009-09-25, 03:22:04,VALID,998.852,VALID,0,VALID,92.4023,VALID,0,VALID,22.0447,VALID,30,VALID,0,
2009-09-25, 03:23:04,VALID,998.841,VALID,0,VALID,92.3871,VALID,0,VALID,22.0447,VALID,30,VALID,0.245703,
2009-09-25, 03:24:04,VALID,998.871,VALID,0,VALID,92.2574,VALID,0,VALID,22.0252,VALID,30,VALID,0.26875,
2009-09-25, 03:25:04,VALID,998.86,VALID,0,VALID,91.9522,VALID,0,VALID,21.9455,VALID,30,VALID,0.523438,
2009-09-25, 03:26:04,VALID,998.885,VALID,0,VALID,92.1811,VALID,0,VALID,21.9472,VALID,30,VALID,0.689844,
2009-09-25, 03:27:04,VALID,998.9,VALID,0,VALID,92.2421,VALID,0,VALID,21.9472,VALID,30,VALID,0.744141,
2009-09-25, 03:28:04,VALID,998.938,VALID,0,VALID,92.1887,VALID,0,VALID,21.9472,VALID,30,VALID,0.596484,
2009-09-25, 03:29:04,VALID,998.933,VALID,0,VALID,91.6317,VALID,0,VALID,21.9082,VALID,30,VALID,0.78125,
2009-09-25, 03:30:04,VALID,998.886,VALID,0,VALID,92.0056,VALID,0,VALID,21.887,VALID,30,VALID,0.562891,
2009-09-25, 03:31:04,VALID,998.88,VALID,0,VALID,91.8759,VALID,0,VALID,21.848,VALID,30,VALID,0.421484,
2009-09-25, 03:32:04,VALID,998.898,VALID,0,VALID,91.8911,VALID,0,VALID,21.8692,VALID,30,VALID,0.184375,
2009-09-25, 03:33:04,VALID,998.903,VALID,0,VALID,91.9293,VALID,0,VALID,21.8285,VALID,30,VALID,0.244922,
2009-09-25, 03:34:04,VALID,998.908,VALID,0,VALID,92.0056,VALID,0,VALID,21.8496,VALID,30,VALID,0.342969,
2009-09-25, 03:35:04,VALID,998.922,VALID,0,VALID,92.1658,VALID,0,VALID,21.8692,VALID,30,VALID,0.447656,
2009-09-25, 03:36:04,VALID,998.927,VALID,0,VALID,92.12,VALID,0,VALID,21.8887,VALID,30,VALID,0.592578,
2009-09-25, 03:37:04,VALID,998.941,VALID,0,VALID,92.0437,VALID,0,VALID,21.8675,VALID,30,VALID,0.641406,
2009-09-25, 03:38:04,VALID,998.941,VALID,0,VALID,91.9598,VALID,0,VALID,21.848,VALID,30,VALID,0.68125,
2009-09-25, 03:39:04,VALID,998.947,VALID,0,VALID,92.0056,VALID,0,VALID,21.8285,VALID,26,VALID,0.620313,
2009-09-25, 03:40:04,VALID,998.958,VALID,0,VALID,92.0666,VALID,0,VALID,21.848,VALID,23,VALID,0.568359,
2009-09-25, 03:41:04,VALID,998.96,VALID,0,VALID,92.059,VALID,0,VALID,21.8675,VALID,23,VALID,0.563672,
2009-09-25, 03:42:04,VALID,998.954,VALID,0,VALID,92.059,VALID,0,VALID,21.8887,VALID,23,VALID,0.546484,
2009-09-25, 03:43:04,VALID,998.962,VALID,0,VALID,92.0285,VALID,0,VALID,21.9082,VALID,23,VALID,0.494141,
2009-09-25, 03:44:04,VALID,998.933,VALID,0,VALID,91.9293,VALID,0,VALID,21.9082,VALID,23,VALID,0.580078,
2009-09-25, 03:45:04,VALID,998.943,VALID,0,VALID,91.9827,VALID,0,VALID,21.9082,VALID,23,VALID,0.646094,
2009-09-25, 03:46:04,VALID,998.937,VALID,0,VALID,91.792,VALID,0,VALID,21.9082,VALID,23,VALID,0.655469,
2009-09-25, 03:47:04,VALID,998.946,VALID,0,VALID,91.3037,VALID,0,VALID,21.8496,VALID,23,VALID,0.507813,
2009-09-25, 03:48:05,VALID,998.941,VALID,0,VALID,91.7462,VALID,0,VALID,21.8301,VALID,23,VALID,0.496875,
2009-09-25, 03:49:05,VALID,998.925,VALID,0,VALID,91.8301,VALID,0,VALID,21.8301,VALID,23,VALID,0.565234,